COSMOS 2429

Satellite information

Favourite Embed

Satellite Type and Status

PAYLOADIN ORBIT

Key statistics

Satellite COSMOS 2429 at a glance.

Uptime

6669

Days in orbit

Revolutions

≈ 13.8

Per day

Orbit

LEO

Low Earth Orbit

Inclination

83.0

Latest

Satellite identification and parameters

Extended collection of information and parameters for COSMOS 2429.

Object identification

Identified? True

Debris? False

Object name: COSMOS 2429

International designator: 2007-038A

Object number (NORAD): 32052

Object ID (CCSDS): 32052

Country: COMMONWEALTH OF INDEPENDENT STATES (CIS)

Current information (Y/N): Y

RCS size: LARGE

Orbital parameters

Period: 104.716 minutes

Inclination: 82.9804 deg

SMA: 7359.279 km

Apoapsis: 1009.99 km

Periapsis: 952.297 km

RAAN: 342.7329 deg

Eccentricy: 0.0039197

Argument of periapsis: 35.7287 deg

Mean anomaly: 324.6481 deg

Mean motion: 13.7514944 rev/day

Mean motion (dot): 0.00000092 rev/day2

B* drag term: 0.000079842155 1/REarth

Two-line elements (TLE)

Creation date: Dec. 14, 2025, 3:07 a.m.

Reference frame: TEME

Reference center: EARTH

Epoch: Dec. 13, 2025, 12:29 p.m. UTC

TLE line 0: 0 COSMOS 2429

TLE line 1: 1 32052U 07038A 25347.52077481 .00000092 00000-0 79842-4 0 9990

TLE line 2: 2 32052 82.9804 342.7329 0039197 35.7287 324.6481 13.75149440916132

Live tracking on map

Real-time ground track for satellite COSMOS 2429.

In-orbit conjunctions

There are no conjunctions computed for COSMOS 2429, at the moment. Check back to stay up to date, as we update our databases every day.

Go to all conjunctions

Associated space launch

Navigation satellite providing location information for the Tsiklon-B navigation system

COSMOS 2429 was lifted into orbit during the mission ‘Kosmos-3M | Parus 97’, on board a Kosmos-3M space rocket.

The launch took place on Sept. 11, 2007, 1:05 p.m. from 132/1 (132L).

For more information about the launch, click the button.

Launch to space Kosmos-3M | Parus 97
Kosmos-3M | Parus 97

Agency: N/A

Status: Launch Successful

Launch date: Sept. 11, 2007, 1:05 p.m. UTC

Rocket: Kosmos-3M

Launch pad: 132/1 (132L)

Location: Plesetsk Cosmodrome, Russian Federation

...

Latest news about this satellite

There are no fresh news available about this satellite. Check back as we update our databases every day.


Newsletter sign-up

Weekly statistics, charts and insights to help you stay on top of the space industry.